This demonstration page uses our WeatherBlox Daily Observations layout. Learn more.

Left ArrowRight Arrow

40.92945, -100.16068

Hourly Observations for August 17, 2020

Temp ( °F °C ) Dew Point ( °F °C ) Humidity (%) Winds ( mph kmh ) Pressure ( in mb ) Visibility ( mi km ) Precip ( " mm )
12:15 am 00:15 Clear 68 20.2 63 17 82 82 E 3 6 30.13 1020 10 16 N/A
12:35 am 00:35 Clear 67 19.7 63 17 85 85 ENE 3 6 30.13 1020 10 16 N/A
12:55 am 00:55 Clear 66 19.1 62 16.8 87 87 N N/A 30.14 1021 10 16 N/A
1:15 am 01:15 Clear 64 17.8 61 16.1 90 90 N N/A 30.17 1022 10 16 N/A
1:35 am 01:35 Clear 63 17.1 61 15.9 93 93 N N/A 30.19 1022 10 16 N/A
1:55 am 01:55 Clear 63 17 61 15.9 93 93 N N/A 30.19 1022 10 16 N/A
2:15 am 02:15 Clear 63 17 60 15.6 92 92 N N/A 30.20 1023 10 16 N/A
2:35 am 02:35 Clear 61 16 59 15.2 95 95 N N/A 30.21 1023 10 16 N/A
2:55 am 02:55 Clear 61 16.3 59 14.9 91 91 N N/A 30.20 1023 10 16 N/A
3:15 am 03:15 Clear 60 15.5 59 15 97 97 NNW 6 9 30.21 1023 10 16 N/A
3:35 am 03:35 Clear 60 15.5 59 14.8 96 96 NNW 3 6 30.20 1023 7 11 N/A
3:55 am 03:55 Clear 60 15.3 58 14.6 96 96 NNW 7 11 30.20 1023 7 11 N/A
4:15 am 04:15 Clear 60 15.5 58 14.7 95 95 NNW 5 7 30.20 1023 7 11 N/A
4:35 am 04:35 Clear 59 14.9 57 14 94 94 NNW 5 7 30.21 1023 10 16 N/A
4:55 am 04:55 Clear 58 14.6 57 14 96 96 N N/A 30.21 1023 10 16 N/A
5:15 am 05:15 Clear 58 14.4 56 13.6 95 95 N N/A 30.21 1023 10 16 N/A
5:35 am 05:35 Clear 57 13.7 56 13.1 96 96 WNW 3 6 30.22 1023 10 16 N/A
5:55 am 05:55 Clear 57 14 56 13.5 97 97 WNW 3 6 30.21 1023 10 16 N/A
6:15 am 06:15 Clear 56 13.6 56 13.1 97 97 WNW 3 6 30.22 1023 10 16 N/A
6:35 am 06:35 Clear 56 13.6 56 13.2 97 97 WNW 3 6 30.23 1024 10 16 N/A
6:55 am 06:55 Sunny 56 13.5 55 13 97 97 WNW 3 6 30.23 1024 10 16 N/A
7:15 am 07:15 Sunny 56 13.6 56 13.1 97 97 W 5 7 30.24 1024 10 16 N/A
7:35 am 07:35 Sunny 58 14.4 57 13.7 96 96 WNW 6 9 30.23 1024 10 16 N/A
7:55 am 07:55 Sunny 59 15 57 14.1 94 94 W 5 7 30.24 1024 10 16 N/A
8:15 am 08:15 Sunny 60 15.7 58 14.6 93 93 W 5 7 30.23 1024 10 16 N/A
8:35 am 08:35 Sunny 62 16.7 60 15.3 92 92 W 5 7 30.23 1024 10 16 N/A
8:55 am 08:55 Sunny 64 17.6 61 15.9 90 90 NW 3 6 30.22 1023 10 16 N/A
9:15 am 09:15 Sunny 66 18.7 62 16.7 88 88 NW 3 6 30.21 1023 10 16 N/A
9:35 am 09:35 Sunny 67 19.7 63 17.3 86 86 WNW 3 6 30.20 1023 10 16 N/A
9:55 am 09:55 Sunny 70 21 64 18 83 83 N N/A 30.20 1023 10 16 N/A
10:15 am 10:15 Sunny 72 22.2 65 18.5 80 80 W 3 6 30.19 1022 10 16 N/A
10:35 am 10:35 Sunny 74 23.1 65 18.5 75 75 N N/A 30.19 1023 10 16 N/A
10:55 am 10:55 Sunny 76 24.6 65 18.5 69 69 NW 3 6 30.18 1022 10 16 N/A
11:15 am 11:15 Sunny 78 25.5 63 17.1 60 60 N N/A 30.16 1021 10 16 N/A
11:35 am 11:35 Sunny 79 26.1 64 17.5 59 59 WNW 3 6 30.16 1021 10 16 N/A
11:55 am 11:55 Sunny 80 26.7 62 16.6 54 54 N N/A 30.15 1021 10 16 N/A
12:15 pm 12:15 Sunny 82 27.7 61 16 49 49 N N/A 30.14 1021 10 16 N/A
12:35 pm 12:35 Sunny 83 28.1 59 14.8 44 44 N N/A 30.13 1020 10 16 N/A
12:55 pm 12:55 Sunny 83 28.4 59 14.9 44 44 N N/A 30.12 1020 10 16 N/A
1:15 pm 13:15 Sunny 84 28.8 59 14.9 43 43 N N/A 30.12 1020 10 16 N/A
1:35 pm 13:35 Sunny 85 29.2 58 14.3 40 40 N N/A 30.10 1019 10 16 N/A
1:55 pm 13:55 Sunny 85 29.6 55 12.8 36 36 N N/A 30.10 1019 10 16 N/A
2:15 pm 14:15 Sunny 86 30 54 12.3 34 34 NE 5 7 30.09 1019 10 16 N/A
2:35 pm 14:35 Sunny 87 30.7 57 13.7 35 35 S 3 6 30.07 1018 10 16 N/A
2:55 pm 14:55 Sunny 87 30.4 56 13.2 35 35 SSW 6 9 30.06 1018 10 16 N/A
3:15 pm 15:15 Sunny 86 30.2 55 12.8 34 34 ESE 5 7 30.07 1018 10 16 N/A
3:35 pm 15:35 Sunny 88 31 56 13.2 34 34 S 8 13 30.05 1018 10 16 N/A
3:55 pm 15:55 Sunny 88 30.9 55 13 33 33 WSW 5 7 30.04 1017 10 16 N/A
4:15 pm 16:15 Sunny 88 31.2 55 12.6 32 32 SSW 6 9 30.03 1017 10 16 N/A
4:35 pm 16:35 Sunny 88 30.9 53 11.6 30 30 N N/A 30.02 1017 10 16 N/A
4:55 pm 16:55 Sunny 88 31.3 54 12.1 31 31 S 5 7 30.02 1017 10 16 N/A
5:15 pm 17:15 Sunny 88 31.2 53 11.9 31 31 S 7 11 30.02 1017 10 16 N/A
5:35 pm 17:35 Sunny 88 31.3 52 11.1 29 29 N N/A 30.02 1017 10 16 N/A
5:55 pm 17:55 Sunny 88 31.3 56 13.6 34 34 S 9 15 30.01 1016 10 16 N/A
6:15 pm 18:15 Sunny 87 30.7 59 14.8 38 38 SSE 9 15 30.01 1016 10 16 N/A
6:35 pm 18:35 Sunny 87 30.4 58 14.4 38 38 SSE 8 13 30.01 1016 10 16 N/A
6:55 pm 18:55 Sunny 85 29.7 59 14.8 40 40 SSE 8 13 30.02 1017 10 16 N/A
7:15 pm 19:15 Sunny 84 29.1 59 15 42 42 SSE 7 11 30.03 1017 10 16 N/A
7:35 pm 19:35 Sunny 83 28.6 58 14.2 41 41 SSE 6 9 30.04 1017 10 16 N/A
7:55 pm 19:55 Sunny 83 28.4 58 14.2 42 42 ESE 6 9 30.04 1017 10 16 N/A
8:15 pm 20:15 Sunny 82 27.5 57 13.9 43 43 SE 6 9 30.05 1018 10 16 N/A
8:35 pm 20:35 Clear 77 25 62 16.5 59 59 S 5 7 30.07 1018 10 16 N/A
8:55 pm 20:55 Clear 76 24.5 61 16.2 60 60 SSE 3 6 30.08 1019 10 16 N/A
9:15 pm 21:15 Clear 75 24.1 60 15.5 59 59 SE 6 9 30.09 1019 10 16 N/A
9:35 pm 21:35 Clear 73 23 60 15.4 62 62 S 5 7 30.10 1019 10 16 N/A
9:55 pm 21:55 Clear 71 21.7 61 16 70 70 S 5 7 30.12 1020 10 16 N/A
10:15 pm 22:15 Clear 69 20.8 61 16.1 75 75 SE 5 7 30.12 1020 10 16 N/A
10:35 pm 22:35 Clear 71 21.7 60 15.5 68 68 ESE 5 7 30.11 1020 10 16 N/A
10:55 pm 22:55 Clear 71 21.7 59 15.2 67 67 N N/A 30.11 1020 10 16 N/A
11:15 pm 23:15 Clear 68 20.1 60 15.7 76 76 N N/A 30.11 1020 10 16 N/A
11:35 pm 23:35 Clear 67 19.3 60 15.7 80 80 N N/A 30.13 1020 10 16 N/A
11:55 pm 23:55 Clear 65 18.6 61 15.9 84 84 N N/A 30.13 1020 10 16 N/A

Powered by AerisWeather